1515380400.99,7995,9.06,74126.3,-4.35,-14.55,-19.03,0,*6E
1515380402.2,7996,9.06,74128.5,-4.37,-14.93,-19.03,0,*65
1515380403.39,7997,9.06,74126.3,-4.37,-15.07,-19.03,0,*68
1515380404.6,7998,9.06,74126.3,-4.37,-15.63,-19.23,0,*67
1515380405.86,7999,9.06,74130.3,-4.35,-15.95,-19.23,0,*6D
1515380407.1,8000,9.06,74126.0,-4.37,-16.23,-19.31,0,*64
1515380408.3,8001,9.06,74128.5,-4.37,-16.59,-19.51,0,*6E
1515380409.49,8002,9.06,74132.5,-4.37,-16.93,-19.95,0,*63
1515380410.72,8003,9.06,74130.3,-4.37,-17.41,-20.43,0,*6D
1515380411.97,8004,9.06,74128.5,-4.41,-17.93,-20.79,0,*6D
1515380413.19,8005,9.06,74124.8,-4.37,-18.01,-20.73,0,*63
1515380414.44,8006,9.06,74126.5,-4.37,-18.31,-20.79,0,*69
1515380415.68,8007,9.06,74124.0,-4.39,-18.35,-21.09,0,*64
1515380416.9,8008,9.06,74124.3,-4.39,-18.49,-21.13,0,*6B
1515380418.15,8009,9.06,74128.5,-4.39,-18.83,-21.27,0,*6B
1515380419.4,8010,9.06,74122.5,-4.39,-18.83,-21.23,0,*67
1515380420.62,8011,9.06,74124.8,-4.39,-18.99,-21.43,0,*6B
1515380421.84,8012,9.06,74120.5,-4.41,-19.23,-21.73,0,*64
1515380423.07,8013,9.06,74122.8,-4.41,-19.41,-22.03,0,*65
1515380424.32,8014,9.06,74122.3,-4.39,-19.91,-22.17,0,*65
1515380425.54,8015,9.06,74124.0,-4.41,-20.49,-22.37,0,*66
1515380426.76,8016,9.06,74124.0,-4.41,-20.99,-22.37,0,*68
1515380427.99,8017,9.06,74118.8,-4.41,-21.43,-22.47,0,*68
1515380429.23,8018,9.06,74120.3,-4.39,-21.77,-22.21,0,*6F
1515380430.42,8019,9.06,74120.0,-4.41,-21.77,-21.73,0,*65
1515380431.69,8020,9.06,74124.5,-4.41,-21.53,-21.23,0,*6C
1515380432.94,8021,9.06,74122.3,-4.41,-21.67,-20.83,0,*61
1515380434.17,8022,9.06,74120.0,-4.43,-21.93,-20.63,0,*65
1515380435.39,8023,9.06,74120.5,-4.43,-21.63,-20.05,0,*6B
1515380436.61,8024,9.06,74122.3,-4.41,-21.39,-19.65,0,*6D
1515380437.86,8025,9.06,74120.0,-4.41,-20.99,-19.23,0,*65
1515380439.05,8026,9.06,74120.3,-4.41,-20.63,-19.07,0,*65
1515380440.24,8027,9.06,74118.0,-4.41,-20.59,-19.07,0,*6D
1515380441.47,8028,9.06,74118.8,-4.41,-20.63,-18.93,0,*67
1515380442.71,8029,9.06,74116.8,-4.43,-20.53,-18.65,0,*6E
1515380443.96,8030,9.06,74108.0,-4.43,-20.39,-17.93,0,*6C
1515380445.2,8031,9.06,74106.5,-4.41,-20.15,-17.11,0,*6B
1515380446.43,8032,9.06,74102.8,-4.41,-19.75,-16.23,0,*64
1515380447.67,8033,9.06,74104.5,-4.43,-19.61,-15.67,0,*61
1515380448.96,8034,9.06,74104.5,-4.43,-19.27,-14.51,0,*60
1515380450.21,8035,9.06,74108.3,-4.43,-18.35,-13.51,0,*64
1515380451.46,8036,9.06,74102.8,-4.43,-17.17,-12.43,0,*6A
1515380452.73,8037,9.06,74106.8,-4.43,-15.57,-11.73,0,*6D
1515380453.98,8038,9.06,74106.0,-4.43,-14.01,-10.97,0,*6B
1515380455.27,8039,9.06,74102.3,-4.43,-12.53,-10.41,0,*60
1515380456.49,8040,9.06,74102.3,-4.43,-11.41,-9.93,0,*59
1515380457.73,8041,9.06,74102.5,-4.43,-10.41,-9.79,0,*5D
1515380458.94,8042,9.06,74104.0,-4.43,-9.67,-9.67,0,*6D
1515380460.13,8043,9.06,74100.5,-4.45,-9.31,-9.79,0,*66
1515380461.36,8044,9.06,74102.8,-4.41,-9.01,-9.83,0,*63
1515380462.55,8045,9.06,74106.3,-4.41,-9.01,-9.97,0,*67
1515380463.76,8046,9.06,74104.5,-4.41,-9.01,-10.01,0,*53
1515380464.98,8047,9.06,74108.5,-4.41,-9.15,-10.09,0,*5F
1515380466.2,8048,9.06,74108.8,-4.39,-9.27,-10.09,0,*5E
1515380467.39,8049,9.06,74110.0,-4.41,-9.19,-10.09,0,*5D
1515380468.61,8050,9.06,74106.8,-4.39,-9.31,-10.53,0,*5F
1515380469.82,8051,9.06,74114.0,-4.41,-9.83,-11.19,0,*57
1515380471.06,8052,9.06,74112.8,-4.39,-10.53,-12.15,0,*61
1515380472.3,8053,9.06,74114.0,-4.39,-11.41,-13.01,0,*66
1515380473.52,8054,9.06,74112.8,-4.39,-12.47,-13.73,0,*61
1515380474.79,8055,9.06,74112.8,-4.39,-13.61,-14.47,0,*65
1515380476.02,8056,9.06,74114.3,-4.39,-14.19,-14.89,0,*6C
1515380477.27,8057,9.06,74114.8,-4.39,-14.47,-15.67,0,*67
1515380478.51,8058,9.06,74118.0,-4.39,-15.11,-16.65,0,*6B
1515380479.78,8059,9.06,74118.5,-4.39,-16.09,-17.45,0,*63
1515380481.02,8060,9.06,74116.3,-4.39,-16.65,-18.17,0,*6B
1515380482.26,8061,9.06,74116.0,-4.37,-17.07,-18.59,0,*6B
1515380483.5,8062,9.06,74118.5,-4.39,-17.25,-18.83,0,*61
1515380484.72,8063,9.06,74116.3,-4.41,-17.03,-19.07,0,*66
1515380485.94,8064,9.06,74118.0,-4.37,-17.21,-19.99,0,*67
1515380487.18,8065,9.06,74126.8,-4.39,-17.79,-21.13,0,*6C
1515380488.38,8066,9.06,74126.8,-4.41,-19.13,-22.53,0,*65
1515380489.61,8067,9.06,74126.3,-4.41,-20.49,-23.43,0,*61
1515380490.83,8068,9.06,74124.5,-4.41,-21.13,-23.69,0,*68
1515380492.08,8069,9.06,74122.5,-4.41,-21.67,-23.69,0,*6A
1515380493.34,8070,9.06,74120.5,-4.39,-22.21,-24.15,0,*60
1515380494.58,8071,9.06,74116.5,-4.39,-22.83,-24.15,0,*69
1515380495.82,8072,9.06,74120.0,-4.41,-23.03,-24.15,0,*6C
1515380497.02,8073,9.06,74118.8,-4.41,-23.43,-24.47,0,*6E
1515380498.27,8074,9.06,74118.3,-4.41,-23.95,-24.83,0,*6A
1515380499.53,8075,9.06,74114.0,-4.41,-23.95,-24.71,0,*66
1515380500.73,8076,9.06,74118.0,-4.41,-23.59,-24.57,0,*61
1515380501.94,8077,9.06,74118.3,-4.43,-23.39,-24.61,0,*61
1515380503.16,8078,9.06,74118.3,-4.41,-23.19,-24.57,0,*6B
1515380504.36,8079,9.06,74116.3,-4.41,-23.13,-24.47,0,*61
1515380505.59,8080,9.06,74120.3,-4.41,-23.19,-24.57,0,*6C
1515380506.84,8081,9.06,74118.8,-4.43,-23.75,-25.03,0,*65
1515380508.09,8082,9.06,74122.3,-4.43,-24.35,-25.45,0,*67
1515380509.32,8083,9.06,74124.8,-4.43,-24.61,-25.61,0,*61
1515380510.55,8084,9.06,74126.5,-4.43,-24.77,-25.61,0,*61
1515380511.83,8085,9.06,74116.0,-4.43,-24.87,-25.75,0,*6A
1515380513.08,8086,9.06,74110.8,-4.45,-24.87,-25.71,0,*6B
1515380514.34,8087,9.06,74108.8,-4.43,-24.83,-25.65,0,*6D
1515380515.56,8088,9.06,74106.0,-4.45,-24.87,-25.65,0,*60
1515380516.82,8089,9.06,74106.3,-4.43,-24.83,-25.61,0,*67
1515380518.05,8090,9.06,74114.0,-4.43,-24.77,-25.49,0,*6E
1515380519.29,8091,9.06,74118.0,-4.45,-24.25,-25.39,0,*69
1515380520.49,8092,9.06,74120.8,-4.45,-24.35,-25.19,0,*69
1515380521.7,8093,9.06,74124.8,-4.45,-24.51,-25.23,0,*63
1515380522.92,8094,9.06,74120.3,-4.45,-24.67,-25.23,0,*61
1515380524.17,8095,9.06,74116.8,-4.45,-24.83,-25.03,0,*68
1515380525.4,8096,9.06,74116.8,-4.45,-24.71,-24.57,0,*66
1515380526.63,8097,9.06,74114.0,-4.45,-24.71,-23.89,0,*63
1515380527.87,8098,9.06,74116.0,-4.45,-24.31,-23.03,0,*6A
1515380529.11,8099,9.06,74118.0,-4.45,-23.69,-21.97,0,*6E
1515380530.33,8100,9.06,74118.3,-4.45,-23.09,-21.33,0,*67
1515380531.57,8101,9.06,74118.8,-4.45,-22.47,-20.89,0,*6D
1515380532.8,8102,9.06,74122.3,-4.43,-22.11,-20.89,0,*6B
1515380534.08,8103,9.06,74122.5,-4.47,-21.83,-21.23,0,*67
1515380535.33,8104,9.06,74116.8,-4.47,-21.77,-21.67,0,*6B
1515380536.58,8105,9.06,74120.8,-4.47,-21.87,-22.27,0,*62
1515380537.82,8106,9.06,74122.3,-4.47,-21.97,-22.57,0,*67
1515380539.07,8107,9.06,74126.0,-4.49,-22.17,-23.03,0,*63
1515380540.31,8108,9.06,74124.0,-4.47,-22.21,-23.39,0,*6E
1515380541.53,8109,9.06,74130.0,-4.47,-22.27,-23.79,0,*6D
1515380542.78,8110,9.06,74120.8,-4.49,-22.47,-24.25,0,*63
1515380543.98,8111,9.06,74124.0,-4.49,-22.83,-24.61,0,*6A
1515380545.22,8112,9.06,74122.8,-4.47,-23.13,-24.87,0,*67
1515380546.45,8113,9.06,74122.0,-4.49,-23.29,-25.09,0,*66
1515380547.65,8114,9.06,74130.3,-4.49,-23.59,-25.23,0,*6E
1515380548.85,8115,9.06,74126.3,-4.49,-23.79,-25.39,0,*66
1515380550.1,8116,9.06,74128.0,-4.49,-23.95,-25.45,0,*6C
1515380551.34,8117,9.06,74126.8,-4.49,-24.11,-25.45,0,*66
1515380552.6,8118,9.06,74124.5,-4.49,-24.25,-25.55,0,*6F
1515380553.86,8119,9.06,74128.3,-4.49,-24.25,-25.55,0,*6E
1515380555.13,8120,9.06,74128.3,-4.49,-24.25,-25.55,0,*64
1515380556.41,8121,9.06,74128.8,-4.51,-24.41,-25.55,0,*6E
1515380557.66,8122,9.06,74124.0,-4.51,-24.57,-25.71,0,*6C
1515380558.94,8123,9.06,74120.0,-4.55,-24.67,-25.71,0,*6A
1515380560.17,8124,9.06,74126.5,-4.51,-24.61,-25.61,0,*6E
1515380561.44,8125,9.06,74126.0,-4.51,-24.71,-25.61,0,*6E
1515380562.68,8126,9.06,74122.8,-4.51,-24.61,-25.45,0,*6A
1515380563.93,8127,9.06,74126.5,-4.55,-24.67,-25.61,0,*6F
1515380565.22,8128,9.06,74122.0,-4.51,-24.71,-25.55,0,*64
1515380566.51,8129,9.06,74120.0,-4.51,-24.71,-25.55,0,*65
1515380567.79,8130,9.06,74116.5,-4.55,-24.83,-25.71,0,*62
1515380569.02,8131,9.06,74116.3,-4.51,-24.77,-25.61,0,*6D
1515380570.28,8132,9.06,74112.8,-4.51,-24.77,-25.55,0,*69
1515380571.51,8133,9.06,74116.0,-4.55,-24.77,-25.49,0,*61
1515380572.76,8134,9.06,74122.0,-4.51,-24.77,-25.55,0,*6F
1515380573.98,8135,9.06,74120.5,-4.55,-24.93,-25.61,0,*67
1515380575.23,8136,9.06,74120.3,-4.55,-24.83,-25.61,0,*65
1515380576.51,8137,9.06,74120.3,-4.51,-24.87,-25.55,0,*63
1515380577.73,8138,9.06,74120.5,-4.55,-24.93,-25.61,0,*6A
1515380579.0,8139,9.06,74122.3,-4.51,-24.87,-25.55,0,*6D
1515380580.25,8140,9.06,74112.3,-4.51,-24.77,-25.45,0,*6D
1515380581.47,8141,9.06,74116.0,-4.55,-24.77,-25.35,0,*6F
1515380582.72,8142,9.06,74120.8,-4.51,-24.87,-25.39,0,*6B
1515380583.93,8143,9.06,74122.3,-4.55,-24.93,-25.35,0,*67
1515380585.16,8144,9.06,74120.8,-4.51,-24.77,-25.39,0,*62
1515380586.39,8145,9.06,74114.8,-4.51,-24.77,-25.39,0,*63
1515380587.64,8146,9.06,74122.3,-4.51,-24.87,-25.39,0,*6F
1515380588.89,8147,9.06,74120.5,-4.51,-24.87,-25.39,0,*6E
1515380590.14,8148,9.06,74122.3,-4.55,-24.83,-25.49,0,*66
1515380591.37,8149,9.06,74122.0,-4.55,-24.97,-25.49,0,*62
1515380592.61,8150,9.06,74122.3,-4.51,-24.93,-25.55,0,*67
1515380593.83,8151,9.06,74124.5,-4.55,-24.97,-25.49,0,*6B
1515380595.11,8152,9.06,74126.0,-4.51,-24.87,-25.55,0,*60
1515380596.38,8153,9.06,74122.8,-4.55,-24.83,-25.45,0,*60
1515380597.64,8154,9.06,74124.0,-4.55,-24.83,-25.49,0,*6B
1515380598.9,8155,9.06,74124.3,-4.51,-24.71,-25.39,0,*64
1515380600.15,8156,9.06,74122.8,-4.51,-24.77,-25.45,0,*6A
1515380601.4,8157,9.06,74116.3,-4.55,-24.83,-25.49,0,*68
1515380602.63,8158,9.06,74122.3,-4.57,-24.83,-25.61,0,*6F
1515380603.89,8159,9.06,74122.8,-4.55,-24.83,-25.49,0,*66
1515380605.14,8160,9.06,74130.5,-4.57,-24.83,-25.45,0,*62
1515380606.37,8161,9.06,74130.5,-4.57,-25.03,-25.49,0,*66
1515380607.58,8162,9.06,74122.8,-4.57,-24.93,-25.29,0,*6B
1515380608.83,8163,9.06,74122.8,-4.57,-24.83,-25.03,0,*63
1515380610.06,8164,9.06,74120.8,-4.57,-24.71,-24.93,0,*61
1515380611.28,8165,9.06,74122.3,-4.57,-24.67,-24.93,0,*67
1515380612.48,8166,9.06,74116.8,-4.57,-24.61,-24.77,0,*68
1515380613.72,8167,9.06,74122.8,-4.55,-24.61,-24.83,0,*60
1515380614.97,8168,9.06,74120.8,-4.55,-24.51,-24.67,0,*66
1515380616.22,8169,9.06,74122.0,-4.51,-24.41,-24.61,0,*64
1515380617.47,8170,9.06,74114.8,-4.51,-24.25,-24.57,0,*6B
1515380618.73,8171,9.06,74120.5,-4.55,-24.21,-24.61,0,*6F
1515380619.97,8172,9.06,74118.5,-4.55,-24.15,-24.61,0,*6B
1515380621.21,8173,9.06,74120.5,-4.55,-24.15,-24.61,0,*6A
1515380622.48,8174,9.06,74118.8,-4.51,-23.99,-24.41,0,*68
1515380623.73,8175,9.06,74114.3,-4.55,-23.99,-24.47,0,*6B
1515380625.0,8176,9.06,74118.0,-4.51,-23.85,-24.25,0,*65
1515380626.27,8177,9.06,74114.8,-4.51,-23.65,-24.15,0,*69
1515380627.54,8178,9.06,74114.5,-4.51,-23.33,-24.11,0,*61
1515380628.8,8179,9.06,74110.8,-4.51,-23.29,-23.95,0,*60
1515380630.04,8180,9.06,74110.3,-4.51,-23.13,-23.99,0,*63
1515380631.31,8181,9.06,74110.0,-4.51,-23.19,-23.99,0,*68
1515380632.56,8182,9.06,74114.3,-4.51,-23.13,-23.99,0,*61
1515380633.8,8183,9.06,74114.8,-4.55,-23.19,-23.89,0,*6F
1515380635.05,8184,9.06,74108.5,-4.51,-23.19,-23.75,0,*6F
1515380636.29,8185,9.06,74106.5,-4.51,-23.29,-23.79,0,*61
1515380637.56,8186,9.06,74114.8,-4.51,-23.33,-23.65,0,*64
1515380638.83,8187,9.06,74108.8,-4.51,-23.33,-23.49,0,*6B
1515380640.11,8188,9.06,74104.0,-4.51,-23.49,-23.49,0,*69
1515380641.33,8189,9.06,74110.8,-4.51,-23.43,-23.59,0,*63
1515380642.56,8190,9.06,74112.0,-4.51,-23.43,-23.59,0,*6B
1515380643.8,8191,9.06,74112.3,-4.51,-23.49,-23.75,0,*6E
1515380645.07,8192,9.06,74112.3,-4.55,-23.53,-23.69,0,*6F
1515380646.32,8193,9.06,74114.3,-4.49,-23.65,-23.49,0,*64
1515380647.59,8194,9.06,74110.0,-4.51,-23.85,-23.49,0,*64
1515380648.86,8195,9.06,74112.3,-4.51,-23.95,-23.19,0,*61
1515380650.14,8196,9.06,74106.8,-4.51,-24.11,-23.03,0,*62
1515380651.39,8197,9.06,74112.5,-4.51,-24.11,-22.67,0,*60
1515380652.67,8198,9.06,74118.3,-4.51,-24.11,-22.31,0,*6C
1515380653.94,8199,9.06,74114.8,-4.51,-23.99,-21.83,0,*60
1515380655.19,8200,9.06,74116.8,-4.51,-23.95,-21.39,0,*6E
1515380656.42,8201,9.06,74116.0,-4.55,-23.89,-20.89,0,*6C
1515380657.67,8202,9.06,74118.8,-4.51,-23.85,-20.43,0,*61
1515380658.92,8203,9.06,74118.8,-4.55,-23.85,-19.91,0,*61
1515380660.17,8204,9.06,74116.0,-4.51,-23.79,-19.27,0,*6C
1515380661.41,8205,9.06,74114.8,-4.55,-23.79,-18.55,0,*6D
1515380662.63,8206,9.06,74118.3,-4.55,-23.79,-17.73,0,*65
1515380663.86,8207,9.06,74116.8,-4.51,-23.43,-16.83,0,*67
1515380665.11,8208,9.06,74118.0,-4.51,-23.03,-15.75,0,*66
1515380666.36,8209,9.06,74116.5,-4.55,-22.53,-14.79,0,*6A
1515380667.59,8210,9.06,74116.8,-4.55,-22.07,-13.79,0,*64
1515380668.87,8211,9.06,74116.0,-4.51,-21.23,-12.79,0,*65
1515380670.11,8212,9.06,74116.5,-4.51,-19.99,-11.77,0,*61
1515380671.36,8213,9.06,74118.0,-4.51,-18.99,-10.79,0,*6E
1515380672.61,8214,9.06,74112.0,-4.51,-17.93,-9.79,0,*54
1515380673.83,8215,9.06,74112.5,-4.51,-16.79,-8.93,0,*55
1515380675.04,8216,9.06,74112.5,-4.55,-15.67,-8.25,0,*53
1515380676.31,8217,9.06,74114.5,-4.51,-14.51,-7.65,0,*59
1515380677.56,8218,9.06,74108.0,-4.51,-13.51,-7.39,0,*58
1515380678.8,8219,9.06,74110.3,-4.51,-12.61,-7.19,0,*59
1515380680.04,8220,9.06,74112.5,-4.55,-11.73,-7.11,0,*5F
1515380681.28,8221,9.06,74114.3,-4.51,-10.97,-6.97,0,*5E
1515380682.53,8222,9.06,74110.0,-4.51,-10.27,-6.97,0,*56
1515380683.76,8223,9.06,74114.0,-4.51,-9.61,-6.89,0,*62
1515380684.97,8224,9.06,74108.8,-4.49,-9.15,-6.89,0,*6F
1515380686.17,8225,9.06,74110.3,-4.49,-8.71,-6.89,0,*6D
1515380687.37,8226,9.06,74114.3,-4.49,-8.33,-7.01,0,*69
1515380688.58,8227,9.06,74112.5,-4.47,-7.87,-7.11,0,*67
1515380689.82,8228,9.06,74116.5,-4.49,-7.65,-7.27,0,*6F
1515380691.05,8229,9.06,74118.3,-4.47,-7.39,-7.49,0,*61
1515380692.28,8230,9.06,74120.3,-4.49,-7.27,-7.61,0,*62
1515380693.54,8231,9.06,74114.8,-4.47,-7.27,-7.95,0,*66
1515380694.76,8232,9.06,74120.5,-4.47,-7.35,-8.33,0,*65
1515380695.96,8233,9.06,74118.3,-4.47,-7.49,-8.71,0,*69
1515380697.15,8234,9.06,74116.3,-4.45,-7.87,-9.23,0,*68
1515380698.39,8235,9.06,74118.0,-4.45,-8.07,-9.53,0,*69
1515380699.58,8236,9.06,74112.5,-4.45,-8.33,-9.93,0,*61
1515380700.77,8237,9.06,74116.0,-4.45,-8.75,-9.97,0,*66
1515380701.99,8238,9.06,74116.0,-4.45,-9.11,-10.05,0,*59
1515380703.18,8239,9.06,74120.5,-4.45,-9.23,-10.05,0,*59
1515380704.43,8240,9.06,74116.8,-4.43,-9.49,-10.01,0,*59
1515380705.63,8241,9.06,74116.3,-4.45,-9.71,-10.05,0,*51
1515380706.86,8242,9.06,74120.3,-4.43,-9.53,-9.89,0,*68
1515380708.07,8243,9.06,74118.3,-4.45,-9.57,-9.93,0,*60
1515380709.31,8244,9.06,74118.0,-4.43,-9.45,-9.93,0,*62
1515380710.53,8245,9.06,74122.8,-4.45,-9.41,-10.19,0,*5B
1515380711.78,8246,9.06,74122.3,-4.43,-9.37,-10.45,0,*56
1515380713.02,8247,9.06,74120.5,-4.43,-9.45,-11.11,0,*52
1515380714.26,8248,9.06,74122.0,-4.43,-9.75,-11.73,0,*5A
1515380715.48,8249,9.06,74120.0,-4.43,-10.05,-12.21,0,*60
1515380716.73,8250,9.06,74118.0,-4.43,-10.71,-13.11,0,*69
1515380717.98,8251,9.06,74114.0,-4.43,-11.23,-14.01,0,*68
1515380719.23,8252,9.06,74118.8,-4.43,-11.85,-15.71,0,*61
1515380720.48,8253,9.06,74120.5,-4.43,-12.97,-17.79,0,*6A
1515380721.72,8254,9.06,74110.0,-4.43,-14.65,-19.81,0,*6F
1515380722.94,8255,9.06,74106.5,-4.43,-16.55,-21.63,0,*68
1515380724.19,8256,9.06,74104.3,-4.41,-17.79,-22.47,0,*63
1515380725.42,8257,9.06,74102.3,-4.41,-18.93,-22.87,0,*65
1515380726.67,8258,9.06,74110.5,-4.39,-19.71,-23.19,0,*6E
1515380727.88,8259,9.06,74100.0,-4.41,-20.29,-23.33,0,*6F
1515380729.11,8260,9.06,74104.0,-4.41,-20.99,-23.43,0,*69
1515380730.35,8261,9.06,74110.0,-4.39,-21.39,-23.49,0,*66
1515380731.58,8262,9.06,74100.8,-4.41,-21.87,-23.59,0,*6E
1515380732.85,8263,9.06,74106.8,-4.43,-22.21,-23.69,0,*61
1515380734.07,8264,9.06,74108.8,-4.43,-22.53,-23.75,0,*6E
1515380735.31,8265,9.06,74108.8,-4.41,-22.73,-23.69,0,*62
1515380736.51,8266,9.06,74112.3,-4.41,-22.97,-23.79,0,*6A
1515380737.74,8267,9.06,74104.3,-4.41,-23.03,-23.79,0,*67
1515380738.96,8268,9.06,74106.8,-4.41,-23.13,-23.69,0,*68
1515380740.18,8269,9.06,74110.3,-4.41,-23.29,-23.79,0,*61
1515380741.42,8270,9.06,74100.8,-4.41,-23.33,-23.65,0,*6F
1515380742.67,8271,9.06,74108.0,-4.41,-23.49,-23.65,0,*63
1515380743.87,8272,9.06,74110.0,-4.41,-23.43,-23.59,0,*65
1515380745.11,8273,9.06,74108.3,-4.41,-23.49,-23.49,0,*6F
1515380746.39,8274,9.06,74104.5,-4.43,-23.65,-23.49,0,*64
1515380747.61,8275,9.06,74106.5,-4.41,-23.59,-23.33,0,*65
1515380748.84,8276,9.06,74112.0,-4.41,-23.59,-23.19,0,*6E
1515380750.06,8277,9.06,74112.0,-4.41,-23.65,-23.13,0,*6A
1515380751.33,8278,9.06,74118.8,-4.39,-23.65,-23.03,0,*6B
1515380752.56,8279,9.06,74114.8,-4.41,-23.65,-22.87,0,*68
1515380753.76,8280,9.06,74116.5,-4.41,-23.79,-22.83,0,*67
1515380754.98,8281,9.06,74116.8,-4.41,-23.69,-22.63,0,*69
1515380756.18,8282,9.06,74120.8,-4.41,-23.79,-22.63,0,*6B
1515380757.41,8283,9.06,74118.3,-4.43,-23.75,-22.53,0,*67
1515380758.63,8284,9.06,74114.8,-4.43,-23.75,-22.41,0,*63
1515380759.86,8285,9.06,74116.3,-4.43,-23.75,-22.27,0,*62
1515380761.11,8286,9.06,74122.3,-4.43,-23.75,-22.21,0,*67
1515380762.31,8287,9.06,74118.8,-4.41,-23.59,-21.73,0,*6E
1515380763.55,8288,9.06,74122.8,-4.43,-23.65,-21.63,0,*6D
1515380764.78,8289,9.06,74124.0,-4.45,-23.49,-21.39,0,*6B
1515380766.05,8290,9.06,74120.3,-4.43,-23.23,-20.99,0,*62
1515380767.3,8291,9.06,74122.3,-4.43,-23.03,-20.69,0,*6E
1515380768.55,8292,9.06,74120.8,-4.43,-22.53,-20.53,0,*60
1515380769.78,8293,9.06,74118.0,-4.43,-22.27,-20.39,0,*6E
1515380771.01,8294,9.06,74118.3,-4.41,-21.93,-20.35,0,*6B
1515380772.26,8295,9.06,74118.3,-4.41,-21.57,-20.35,0,*62
1515380773.51,8296,9.06,74116.8,-4.45,-21.33,-20.53,0,*67
1515380774.74,8297,9.06,74112.0,-4.43,-20.89,-20.73,0,*62
1515380775.97,8298,9.06,74108.0,-4.41,-20.69,-21.23,0,*65
1515380777.21,8299,9.06,74104.3,-4.41,-20.79,-21.57,0,*66
1515380778.43,8300,9.06,74112.3,-4.41,-21.09,-21.67,0,*62
1515380779.66,8301,9.06,74112.8,-4.41,-21.13,-21.67,0,*68
1515380780.91,8302,9.06,74118.0,-4.41,-21.23,-21.67,0,*68
1515380782.18,8303,9.06,74118.3,-4.43,-21.27,-21.57,0,*6C
1515380783.41,8304,9.06,74118.3,-4.41,-21.09,-21.27,0,*62
1515380784.66,8305,9.06,74114.0,-4.43,-20.99,-21.17,0,*6A
1515380785.88,8306,9.06,74114.8,-4.43,-20.69,-21.17,0,*66
1515380787.11,8307,9.06,74112.3,-4.43,-20.39,-21.17,0,*62
1515380788.38,8308,9.06,74114.0,-4.43,-20.19,-21.33,0,*69
1515380789.59,8309,9.06,74116.3,-4.43,-20.09,-21.63,0,*6C
1515380790.8,8310,9.06,74118.0,-4.43,-20.05,-21.93,0,*67
1515380792.04,8311,9.06,74116.8,-4.43,-20.05,-22.21,0,*6C
1515380793.29,8312,9.0,74114.8,-4.43,-20.19,-22.57,0,*63
1515380794.53,8313,9.06,74122.0,-4.43,-20.35,-22.87,0,*61
1515380795.75,8314,9.06,74118.0,-4.43,-20.39,-23.09,0,*6D
1515380796.95,8315,9.06,74118.3,-4.45,-20.73,-23.39,0,*67
1515380798.14,8316,9.06,74116.3,-4.45,-20.89,-23.39,0,*61
1515380799.34,8317,9.06,74116.5,-4.45,-21.09,-23.43,0,*64
1515380800.57,8318,9.06,74114.0,-4.45,-21.33,-23.43,0,*62
1515380801.77,8319,9.06,74116.3,-4.45,-21.39,-23.39,0,*64
1515380803.01,8320,9.06,74114.3,-4.43,-21.57,-23.39,0,*60
1515380804.23,8321,9.06,74112.0,-4.45,-21.67,-23.39,0,*64
1515380805.48,8322,9.06,74116.8,-4.43,-21.93,-23.49,0,*6D
1515380806.7,8323,9.06,74114.8,-4.43,-21.93,-23.39,0,*6B
1515380807.91,8324,9.06,74112.0,-4.45,-22.27,-23.43,0,*6B
1515380809.11,8325,9.06,74116.3,-4.45,-22.27,-23.43,0,*6A
1515380810.34,8326,9.06,74116.3,-4.45,-22.31,-23.43,0,*6E
1515380811.54,8327,9.06,74118.3,-4.45,-22.41,-23.43,0,*68
1515380812.76,8328,9.06,74114.3,-4.43,-22.27,-23.39,0,*6C
1515380813.98,8329,9.06,74118.5,-4.43,-22.37,-23.39,0,*6C
1515380815.21,8330,9.06,74116.5,-4.45,-22.31,-23.43,0,*69
1515380816.45,8331,9.06,74112.5,-4.43,-22.27,-23.33,0,*6E
1515380817.65,8332,9.06,74114.0,-4.45,-22.27,-23.39,0,*61
1515380818.88,8333,9.06,74118.5,-4.45,-22.17,-23.43,0,*6E
1515380820.08,8334,9.06,74118.3,-4.45,-22.11,-23.43,0,*6F
1515380821.29,8335,9.06,74116.5,-4.45,-22.11,-23.43,0,*6E
1515380822.5,8336,9.06,74118.0,-4.45,-21.97,-23.39,0,*6D
1515380823.75,8337,9.06,74118.8,-4.45,-21.87,-23.29,0,*6C
1515380824.95,8338,9.06,74114.8,-4.45,-21.77,-23.39,0,*6D
1515380826.23,8339,9.06,74114.5,-4.47,-21.67,-23.23,0,*64
1515380827.45,8340,9.06,74116.5,-4.47,-21.63,-23.09,0,*66
1515380828.67,8341,9.06,74118.3,-4.47,-21.63,-22.97,0,*61
1515380829.92,8342,9.06,74118.8,-4.47,-21.67,-22.93,0,*62
1515380831.14,8343,9.06,74120.5,-4.47,-21.63,-22.63,0,*68
1515380832.39,8344,9.06,74114.0,-4.47,-21.63,-22.47,0,*69
1515380833.63,8345,9.06,74116.0,-4.47,-21.63,-22.31,0,*69
1515380834.89,8346,9.06,74118.3,-4.45,-21.53,-22.17,0,*6F
1515380836.15,8347,9.06,74112.8,-4.45,-21.53,-21.87,0,*64
1515380837.37,8348,9.06,74114.3,-4.47,-21.47,-21.77,0,*63
1515380838.57,8349,9.06,74118.0,-4.45,-21.39,-21.63,0,*6C
1515380839.83,8350,9.06,74116.8,-4.47,-21.33,-21.53,0,*6F
1515380841.06,8351,9.06,74118.3,-4.45,-21.03,-21.47,0,*6A
1515380842.33,8352,9.06,74118.3,-4.43,-20.83,-21.57,0,*67
1515380843.57,8353,9.06,74116.3,-4.47,-20.73,-21.67,0,*6E
1515380844.79,8354,9.06,74116.3,-4.45,-20.73,-21.83,0,*61
1515380845.99,8355,9.06,74118.3,-4.45,-20.73,-22.11,0,*68
1515380847.21,8356,9.06,74118.0,-4.45,-20.79,-22.27,0,*64
1515380848.43,8357,9.06,74116.0,-4.45,-20.93,-22.31,0,*66
1515380849.64,8358,9.06,74114.8,-4.47,-21.09,-22.41,0,*6E
1515380850.87,8359,9.06,74118.0,-4.43,-21.17,-22.27,0,*64
1515380852.12,8360,9.06,74118.0,-4.45,-21.33,-22.31,0,*69
1515380853.37,8361,9.06,74120.8,-4.47,-21.53,-22.03,0,*6D
1515380854.61,8362,9.06,74118.5,-4.47,-21.63,-21.87,0,*62
1515380855.83,8363,9.06,74116.5,-4.47,-21.63,-21.63,0,*69
1515380857.07,8364,9.06,74122.3,-4.47,-21.63,-21.33,0,*6B
1515380858.33,8365,9.06,74122.0,-4.49,-21.53,-21.23,0,*66
1515380859.55,8366,9.06,74116.0,-4.47,-21.47,-21.17,0,*69
1515380860.8,8367,9.06,74116.0,-4.47,-21.39,-21.03,0,*64
1515380862.04,8368,9.06,74120.3,-4.47,-21.39,-21.03,0,*6B
1515380863.28,8369,9.06,74118.5,-4.47,-21.39,-20.79,0,*66
1515380864.5,8370,9.06,74120.8,-4.47,-21.39,-20.59,0,*6C
1515380865.75,8371,9.06,74122.0,-4.47,-21.33,-20.25,0,*6C
1515380866.97,8372,9.06,74116.5,-4.47,-21.09,-19.95,0,*67
1515380868.19,8373,9.06,74118.5,-4.49,-20.83,-19.71,0,*61
1515380869.42,8374,9.06,74116.8,-4.47,-20.43,-19.37,0,*66
1515380870.66,8375,9.06,74116.5,-4.47,-20.15,-19.37,0,*64
1515380871.89,8376,9.06,74114.0,-4.47,-19.85,-19.51,0,*64
1515380873.15,8377,9.06,74114.0,-4.47,-19.81,-19.85,0,*68
1515380874.38,8378,9.06,74116.3,-4.47,-19.75,-20.25,0,*6C
1515380875.6,8379,9.06,74118.0,-4.49,-19.61,-20.69,0,*6E
1515380876.83,8380,9.06,74114.8,-4.49,-19.65,-21.13,0,*60
1515380878.07,8381,9.06,74114.0,-4.47,-19.61,-21.09,0,*60
1515380879.27,8382,9.06,74110.5,-4.49,-19.71,-21.39,0,*6F
1515380880.49,8383,9.06,74112.0,-4.49,-19.91,-21.57,0,*68
1515380881.73,8384,9.06,74114.3,-4.49,-20.15,-21.53,0,*6D
1515380882.92,8385,9.06,74114.8,-4.49,-20.29,-21.39,0,*6F
1515380884.14,8386,9.06,74108.0,-4.47,-20.39,-21.09,0,*60
1515380885.36,8387,9.06,74114.8,-4.49,-20.59,-20.99,0,*61
1515380886.59,8388,9.06,74112.3,-4.49,-20.83,-20.59,0,*65
1515380887.86,8389,9.06,74112.5,-4.47,-21.03,-20.15,0,*6B
1515380889.08,8390,9.06,74110.0,-4.49,-21.27,-19.91,0,*6D
1515380890.3,8391,9.06,74110.8,-4.49,-21.27,-19.51,0,*60
1515380891.51,8392,9.06,74112.5,-4.49,-21.27,-19.07,0,*60
1515380892.78,8393,9.06,74114.0,-4.47,-21.23,-18.55,0,*6D
1515380894.05,8394,9.06,74116.0,-4.47,-21.03,-18.01,0,*69
1515380895.25,8395,9.06,74114.5,-4.49,-21.09,-17.87,0,*6D
1515380896.47,8396,9.06,74114.0,-4.49,-20.93,-17.41,0,*66
1515380897.72,8397,9.06,74114.5,-4.49,-20.79,-17.03,0,*65
1515380898.92,8398,9.0,74108.5,-4.49,-20.59,-16.83,0,*61
1515380900.15,8399,9.06,74112.3,-4.47,-20.15,-16.45,0,*6C
1515380901.38,8400,9.06,74110.8,-4.49,-19.99,-16.27,0,*6F
1515380902.62,8401,9.06,74110.3,-4.49,-19.81,-16.09,0,*6B
1515380903.85,8402,9.06,74112.8,-4.49,-19.57,-15.95,0,*65
1515380905.09,8403,9.06,74114.3,-4.49,-19.27,-15.75,0,*6D
1515380906.28,8404,9.06,74114.3,-4.49,-19.07,-15.67,0,*6B
1515380907.5,8405,9.06,74114.5,-4.49,-18.93,-15.67,0,*66
1515380908.75,8406,9.06,74118.0,-4.47,-18.73,-15.57,0,*66
1515380909.95,8407,9.06,74116.3,-4.49,-18.65,-15.63,0,*69
1515380911.17,8408,9.06,74116.5,-4.49,-18.45,-15.39,0,*6B
1515380912.4,8409,9.06,74116.3,-4.45,-18.25,-15.35,0,*6C